Location: Praha
(50.0830°N, 14.4670°E)
Time: 03:34:01
(UTC+02:00)

ISS - Pass Details

Date: 06 July 2020
Orbit: 417 x 421 km, 51.6° (Epoch: 08 July)

Event Time Altitude Azimuth Distance (km) Brightness Sun altitude
Exits shadow 03:23:48 14° 245° (WSW) 1,270 -1.8 -11.2°
Maximum altitude 03:26:36 76° 161° (SSE) 434 -3.8 -11.0°
Drops below altitude 10° 03:29:57 10° 75° (ENE) 1,498 -0.2 -10.7°
Sets 03:32:03 0° 74° (ENE) 2,364 0.9 -10.5°
